Year,Month,Day,Hour,Minute,Value (Times are PST for insolation in W/m^2)
2009,11,01,00,00,0.00
2009,11,01,00,01,0.00
2009,11,01,00,02,0.00
2009,11,01,00,03,0.00
2009,11,01,00,04,0.00
2009,11,01,00,05,0.00
2009,11,01,00,06,0.00
2009,11,01,00,07,0.00
2009,11,01,00,08,0.00
2009,11,01,00,09,0.00
2009,11,01,00,10,0.00
2009,11,01,00,11,0.00
2009,11,01,00,12,0.00
2009,11,01,00,13,0.00
2009,11,01,00,14,0.00
2009,11,01,00,15,0.00
2009,11,01,00,16,0.00
2009,11,01,00,17,0.00
2009,11,01,00,18,0.00
2009,11,01,00,19,0.00
2009,11,01,00,20,0.00
2009,11,01,00,21,0.00
2009,11,01,00,22,0.00
2009,11,01,00,23,0.00
2009,11,01,00,24,0.00
2009,11,01,00,25,0.00
2009,11,01,00,26,0.00
2009,11,01,00,27,0.00
2009,11,01,00,28,0.00
2009,11,01,00,29,0.00
2009,11,01,00,30,0.00
2009,11,01,00,31,0.00
2009,11,01,00,32,0.00
2009,11,01,00,33,0.00
2009,11,01,00,34,0.00
2009,11,01,00,35,0.00
2009,11,01,00,36,0.00
2009,11,01,00,37,0.00
2009,11,01,00,38,0.00
2009,11,01,00,39,0.00
2009,11,01,00,40,0.00
2009,11,01,00,41,0.00
2009,11,01,00,42,0.00
2009,11,01,00,43,0.00
2009,11,01,00,44,0.00
2009,11,01,00,45,0.00
2009,11,01,00,46,0.00
2009,11,01,00,47,0.00
2009,11,01,00,48,0.00
2009,11,01,00,49,0.00
2009,11,01,00,50,0.00
2009,11,01,00,51,0.00
2009,11,01,00,52,0.00
2009,11,01,00,53,0.00
2009,11,01,00,54,0.00
2009,11,01,00,55,0.00
2009,11,01,00,56,0.00
2009,11,01,00,57,0.00
2009,11,01,00,58,0.00
2009,11,01,00,59,0.00
2009,11,01,01,00,0.00
2009,11,01,01,01,0.00
2009,11,01,01,02,0.00
2009,11,01,01,03,0.00
2009,11,01,01,04,0.00
2009,11,01,01,05,0.00
2009,11,01,01,06,0.00
2009,11,01,01,07,0.00
2009,11,01,01,08,0.00
2009,11,01,01,09,0.00
2009,11,01,01,10,0.00
2009,11,01,01,11,0.00
2009,11,01,01,12,0.00
2009,11,01,01,13,0.00
2009,11,01,01,14,0.00
2009,11,01,01,15,0.00
2009,11,01,01,16,0.00
2009,11,01,01,17,0.00
2009,11,01,01,18,0.00
2009,11,01,01,19,0.00
2009,11,01,01,20,0.00
2009,11,01,01,21,0.00
2009,11,01,01,22,0.00
2009,11,01,01,23,0.00
2009,11,01,01,24,0.00
2009,11,01,01,25,0.00
2009,11,01,01,26,0.00
2009,11,01,01,27,0.00
2009,11,01,01,28,0.00
2009,11,01,01,29,0.00
2009,11,01,01,30,0.00
2009,11,01,01,31,0.00
2009,11,01,01,32,0.00
2009,11,01,01,33,0.00
2009,11,01,01,34,0.00
2009,11,01,01,35,0.00
2009,11,01,01,36,0.00
2009,11,01,01,37,0.00
2009,11,01,01,38,0.00
2009,11,01,01,39,0.00
2009,11,01,01,40,0.00
2009,11,01,01,41,0.00
2009,11,01,01,42,0.00
2009,11,01,01,43,0.00
2009,11,01,01,44,0.00
2009,11,01,01,45,0.00
2009,11,01,01,46,0.00
2009,11,01,01,47,0.00
2009,11,01,01,48,0.00
2009,11,01,01,49,0.00
2009,11,01,01,50,0.00
2009,11,01,01,51,0.00
2009,11,01,01,52,0.00
2009,11,01,01,53,0.00
2009,11,01,01,54,0.00
2009,11,01,01,55,0.00
2009,11,01,01,56,0.00
2009,11,01,01,57,0.00
2009,11,01,01,58,0.00
2009,11,01,01,59,0.00
2009,11,01,02,08,0.00
2009,11,01,02,09,0.00
2009,11,01,02,10,0.00
2009,11,01,02,11,0.00
2009,11,01,02,12,0.00
2009,11,01,02,13,0.00
2009,11,01,02,14,0.00
2009,11,01,02,15,0.00
2009,11,01,02,16,0.00
2009,11,01,02,17,0.00
2009,11,01,02,18,0.00
2009,11,01,02,19,0.00
2009,11,01,02,20,0.00
2009,11,01,02,21,0.00
2009,11,01,02,22,0.00
2009,11,01,02,23,0.00
2009,11,01,02,24,0.00
2009,11,01,02,25,0.00
2009,11,01,02,26,0.00
2009,11,01,02,27,0.00
2009,11,01,02,28,0.00
2009,11,01,02,29,0.00
2009,11,01,02,30,0.00
2009,11,01,02,31,0.00
2009,11,01,02,32,0.00
2009,11,01,02,33,0.00
2009,11,01,02,34,0.00
2009,11,01,02,35,0.00
2009,11,01,02,36,0.00
2009,11,01,02,37,0.00
2009,11,01,02,38,0.00
2009,11,01,02,39,0.00
2009,11,01,02,40,0.00
2009,11,01,02,41,0.00
2009,11,01,02,42,0.00
2009,11,01,02,43,0.00
2009,11,01,02,44,0.00
2009,11,01,02,45,0.00
2009,11,01,02,46,0.00
2009,11,01,02,47,0.00
2009,11,01,02,48,0.00
2009,11,01,02,49,0.00
2009,11,01,02,50,0.00
2009,11,01,02,51,0.00
2009,11,01,02,52,0.00
2009,11,01,02,53,0.00
2009,11,01,02,54,0.00
2009,11,01,02,55,0.00
2009,11,01,02,56,0.00
2009,11,01,02,57,0.00
2009,11,01,02,58,0.00
2009,11,01,02,59,0.00
2009,11,01,03,00,0.00
2009,11,01,03,01,0.00
2009,11,01,03,02,0.00
2009,11,01,03,03,0.00
2009,11,01,03,04,0.00
2009,11,01,03,05,0.00
2009,11,01,03,06,0.00
2009,11,01,03,07,0.00
2009,11,01,03,08,0.00
2009,11,01,03,09,0.00
2009,11,01,03,10,0.00
2009,11,01,03,11,0.00
2009,11,01,03,12,0.00
2009,11,01,03,13,0.00
2009,11,01,03,14,0.00
2009,11,01,03,15,0.00
2009,11,01,03,16,0.00
2009,11,01,03,17,0.00
2009,11,01,03,18,0.00
2009,11,01,03,19,0.00
2009,11,01,03,20,0.00
2009,11,01,03,21,0.00
2009,11,01,03,22,0.00
2009,11,01,03,23,0.00
2009,11,01,03,24,0.00
2009,11,01,03,25,0.00
2009,11,01,03,26,0.00
2009,11,01,03,27,0.00
2009,11,01,03,28,0.00
2009,11,01,03,29,0.00
2009,11,01,03,30,0.00
2009,11,01,03,31,0.00
2009,11,01,03,32,0.00
2009,11,01,03,33,0.00
2009,11,01,03,34,0.00
2009,11,01,03,35,0.00
2009,11,01,03,36,0.00
2009,11,01,03,37,0.00
2009,11,01,03,38,0.00
2009,11,01,03,39,0.00
2009,11,01,03,40,0.00
2009,11,01,03,41,0.00
2009,11,01,03,42,0.00
2009,11,01,03,43,0.00
2009,11,01,03,44,0.00
2009,11,01,03,45,0.00
2009,11,01,03,46,0.00
2009,11,01,03,47,0.00
2009,11,01,03,48,0.00
2009,11,01,03,49,0.00
2009,11,01,03,50,0.00
2009,11,01,03,51,0.00
2009,11,01,03,52,0.00
2009,11,01,03,53,0.00
2009,11,01,03,54,0.00
2009,11,01,03,55,0.00
2009,11,01,03,56,0.00
2009,11,01,03,57,0.00
2009,11,01,03,58,0.00
2009,11,01,03,59,0.00
2009,11,01,04,00,0.00
2009,11,01,04,01,0.00
2009,11,01,04,02,0.00
2009,11,01,04,03,0.00
2009,11,01,04,04,0.00
2009,11,01,04,05,0.00
2009,11,01,04,06,0.00
2009,11,01,04,07,0.00
2009,11,01,04,08,0.00
2009,11,01,04,09,0.00
2009,11,01,04,10,0.00
2009,11,01,04,11,0.00
2009,11,01,04,12,0.00
2009,11,01,04,13,0.00
2009,11,01,04,14,0.00
2009,11,01,04,15,0.00
2009,11,01,04,16,0.00
2009,11,01,04,17,0.00
2009,11,01,04,18,0.00
2009,11,01,04,19,0.00
2009,11,01,04,20,0.00
2009,11,01,04,21,0.00
2009,11,01,04,22,0.00
2009,11,01,04,23,0.00
2009,11,01,04,24,0.00
2009,11,01,04,25,0.00
2009,11,01,04,26,0.00
2009,11,01,04,27,0.00
2009,11,01,04,28,0.00
2009,11,01,04,29,0.00
2009,11,01,04,30,0.00
2009,11,01,04,31,0.00
2009,11,01,04,32,0.00
2009,11,01,04,33,0.00
2009,11,01,04,34,0.00
2009,11,01,04,35,0.00
2009,11,01,04,36,0.00
2009,11,01,04,37,0.00
2009,11,01,04,38,0.00
2009,11,01,04,39,0.00
2009,11,01,04,40,0.00
2009,11,01,04,41,0.00
2009,11,01,04,42,0.00
2009,11,01,04,43,0.00
2009,11,01,04,44,0.00
2009,11,01,04,45,0.00
2009,11,01,04,46,0.00
2009,11,01,04,47,0.00
2009,11,01,04,48,0.00
2009,11,01,04,49,0.00
2009,11,01,04,50,0.00
2009,11,01,04,51,0.00
2009,11,01,04,52,0.00
2009,11,01,04,53,0.00
2009,11,01,04,54,0.00
2009,11,01,04,55,0.00
2009,11,01,04,56,0.00
2009,11,01,04,57,0.00
2009,11,01,04,58,0.00
2009,11,01,04,59,0.00
2009,11,01,05,00,0.00
2009,11,01,05,01,0.00
2009,11,01,05,02,0.00
2009,11,01,05,03,0.00
2009,11,01,05,04,0.00
2009,11,01,05,05,0.00
2009,11,01,05,06,0.00
2009,11,01,05,07,0.00
2009,11,01,05,08,0.00
2009,11,01,05,09,0.00
2009,11,01,05,10,0.00
2009,11,01,05,11,0.00
2009,11,01,05,12,0.00
2009,11,01,05,13,0.00
2009,11,01,05,14,0.00
2009,11,01,05,15,0.00
2009,11,01,05,16,0.00
2009,11,01,05,17,0.00
2009,11,01,05,18,0.00
2009,11,01,05,19,0.00
2009,11,01,05,20,0.00
2009,11,01,05,21,0.00
2009,11,01,05,22,0.00
2009,11,01,05,23,0.00
2009,11,01,05,24,0.00
2009,11,01,05,25,0.00
2009,11,01,05,26,0.00
2009,11,01,05,27,0.00
2009,11,01,05,28,0.00
2009,11,01,05,29,0.00
2009,11,01,05,30,0.00
2009,11,01,05,31,0.00
2009,11,01,05,32,0.00
2009,11,01,05,33,0.00
2009,11,01,05,34,0.00
2009,11,01,05,35,0.00
2009,11,01,05,36,0.00
2009,11,01,05,37,0.00
2009,11,01,05,38,0.00
2009,11,01,05,39,0.00
2009,11,01,05,40,0.00
2009,11,01,05,41,0.00
2009,11,01,05,42,0.00
2009,11,01,05,43,0.00
2009,11,01,05,44,0.00
2009,11,01,05,45,0.00
2009,11,01,05,46,0.00
2009,11,01,05,47,0.00
2009,11,01,05,48,0.00
2009,11,01,05,49,0.00
2009,11,01,05,50,0.00
2009,11,01,05,51,0.00
2009,11,01,05,52,0.00
2009,11,01,05,53,0.00
2009,11,01,05,54,0.00
2009,11,01,05,55,0.00
2009,11,01,05,56,0.00
2009,11,01,05,57,0.00
2009,11,01,05,58,0.00
2009,11,01,05,59,0.00
2009,11,01,06,00,0.00
2009,11,01,06,01,0.00
2009,11,01,06,02,0.00
2009,11,01,06,03,0.00
2009,11,01,06,04,0.00
2009,11,01,06,05,0.00
2009,11,01,06,06,0.00
2009,11,01,06,07,0.00
2009,11,01,06,08,0.00
2009,11,01,06,09,0.00
2009,11,01,06,10,0.00
2009,11,01,06,11,0.00
2009,11,01,06,12,0.00
2009,11,01,06,13,0.00
2009,11,01,06,14,0.00
2009,11,01,06,15,0.00
2009,11,01,06,16,0.00
2009,11,01,06,17,0.00
2009,11,01,06,18,0.00
2009,11,01,06,19,0.00
2009,11,01,06,20,0.00
2009,11,01,06,21,0.00
2009,11,01,06,22,0.00
2009,11,01,06,23,0.00
2009,11,01,06,24,0.00
2009,11,01,06,25,0.00
2009,11,01,06,26,0.00
2009,11,01,06,27,0.00
2009,11,01,06,28,0.00
2009,11,01,06,29,0.00
2009,11,01,06,30,0.00
2009,11,01,06,31,0.00
2009,11,01,06,32,0.00
2009,11,01,06,33,0.00
2009,11,01,06,34,0.00
2009,11,01,06,35,0.00
2009,11,01,06,36,0.00
2009,11,01,06,37,0.00
2009,11,01,06,38,0.00
2009,11,01,06,39,0.00
2009,11,01,06,40,0.00
2009,11,01,06,41,0.00
2009,11,01,06,42,0.00
2009,11,01,06,43,0.00
2009,11,01,06,44,0.00
2009,11,01,06,45,0.00
2009,11,01,06,46,0.00
2009,11,01,06,47,0.00
2009,11,01,06,48,0.00
2009,11,01,06,49,0.00
2009,11,01,06,50,0.00
2009,11,01,06,51,0.00
2009,11,01,06,52,0.00
2009,11,01,06,53,0.00
2009,11,01,06,54,0.00
2009,11,01,06,55,0.00
2009,11,01,06,56,0.00
2009,11,01,06,57,0.00
2009,11,01,06,58,0.00
2009,11,01,06,59,0.00
2009,11,01,07,00,0.00
2009,11,01,07,01,0.00
2009,11,01,07,02,0.00
2009,11,01,07,03,0.00
2009,11,01,07,04,0.00
2009,11,01,07,05,0.00
2009,11,01,07,06,0.00
2009,11,01,07,07,0.00
2009,11,01,07,08,2.20
2009,11,01,07,09,5.00
2009,11,01,07,10,5.00
2009,11,01,07,11,5.00
2009,11,01,07,12,7.00
2009,11,01,07,13,7.00
2009,11,01,07,14,7.80
2009,11,01,07,15,9.00
2009,11,01,07,16,10.50
2009,11,01,07,17,11.00
2009,11,01,07,18,11.20
2009,11,01,07,19,12.00
2009,11,01,07,20,12.00
2009,11,01,07,21,12.00
2009,11,01,07,22,12.00
2009,11,01,07,23,12.00
2009,11,01,07,24,12.00
2009,11,01,07,25,12.00
2009,11,01,07,26,12.00
2009,11,01,07,27,12.00
2009,11,01,07,28,12.00
2009,11,01,07,29,12.10
2009,11,01,07,30,14.00
2009,11,01,07,31,14.00
2009,11,01,07,32,14.90
2009,11,01,07,33,16.00
2009,11,01,07,34,16.00
2009,11,01,07,35,18.00
2009,11,01,07,36,18.00
2009,11,01,07,37,18.00
2009,11,01,07,38,18.00
2009,11,01,07,39,18.70
2009,11,01,07,40,19.00
2009,11,01,07,41,19.00
2009,11,01,07,42,19.50
2009,11,01,07,43,21.00
2009,11,01,07,44,21.00
2009,11,01,07,45,21.00
2009,11,01,07,46,22.70
2009,11,01,07,47,23.30
2009,11,01,07,48,25.00
2009,11,01,07,49,25.40
2009,11,01,07,50,26.00
2009,11,01,07,51,27.40
2009,11,01,07,52,28.00
2009,11,01,07,53,26.00
2009,11,01,07,54,26.00
2009,11,01,07,55,26.00
2009,11,01,07,56,26.00
2009,11,01,07,57,26.00
2009,11,01,07,58,25.10
2009,11,01,07,59,24.60
2009,11,01,08,00,23.00
2009,11,01,08,01,23.00
2009,11,01,08,02,23.00
2009,11,01,08,03,23.00
2009,11,01,08,04,23.10
2009,11,01,08,05,25.10
2009,11,01,08,06,27.40
2009,11,01,08,07,31.00
2009,11,01,08,08,32.00
2009,11,01,08,09,32.00
2009,11,01,08,10,32.90
2009,11,01,08,11,33.40
2009,11,01,08,12,35.00
2009,11,01,08,13,35.00
2009,11,01,08,14,35.00
2009,11,01,08,15,35.00
2009,11,01,08,16,35.00
2009,11,01,08,17,35.50
2009,11,01,08,18,37.80
2009,11,01,08,19,39.50
2009,11,01,08,20,41.40
2009,11,01,08,21,42.00
2009,11,01,08,22,44.20
2009,11,01,08,23,47.00
2009,11,01,08,24,47.00
2009,11,01,08,25,47.00
2009,11,01,08,26,48.30
2009,11,01,08,27,49.00
2009,11,01,08,28,51.00
2009,11,01,08,29,51.00
2009,11,01,08,30,51.80
2009,11,01,08,31,53.00
2009,11,01,08,32,51.60
2009,11,01,08,33,49.30
2009,11,01,08,34,51.00
2009,11,01,08,35,51.50
2009,11,01,08,36,53.50
2009,11,01,08,37,54.00
2009,11,01,08,38,54.00
2009,11,01,08,39,55.70
2009,11,01,08,40,54.00
2009,11,01,08,41,51.50
2009,11,01,08,42,46.50
2009,11,01,08,43,44.80
2009,11,01,08,44,42.50
2009,11,01,08,45,39.20
2009,11,01,08,46,36.20
2009,11,01,08,47,33.00
2009,11,01,08,48,33.00
2009,11,01,08,49,33.00
2009,11,01,08,50,34.50
2009,11,01,08,51,37.00
2009,11,01,08,52,36.60
2009,11,01,08,53,35.70
2009,11,01,08,54,37.00
2009,11,01,08,55,37.00
2009,11,01,08,56,37.00
2009,11,01,08,57,36.80
2009,11,01,08,58,35.00
2009,11,01,08,59,34.20
2009,11,01,09,00,32.50
2009,11,01,09,01,32.00
2009,11,01,09,02,32.00
2009,11,01,09,03,32.20
2009,11,01,09,04,33.00
2009,11,01,09,05,32.60
2009,11,01,09,06,32.00
2009,11,01,09,07,32.00
2009,11,01,09,08,32.00
2009,11,01,09,09,32.00
2009,11,01,09,10,31.40
2009,11,01,09,11,30.00
2009,11,01,09,12,30.00
2009,11,01,09,13,30.00
2009,11,01,09,14,30.00
2009,11,01,09,15,32.50
2009,11,01,09,16,36.20
2009,11,01,09,17,40.00
2009,11,01,09,18,43.80
2009,11,01,09,19,46.00
2009,11,01,09,20,44.20
2009,11,01,09,21,42.00
2009,11,01,09,22,41.30
2009,11,01,09,23,40.00
2009,11,01,09,24,41.20
2009,11,01,09,25,42.00
2009,11,01,09,26,39.90
2009,11,01,09,27,36.30
2009,11,01,09,28,33.00
2009,11,01,09,29,33.00
2009,11,01,09,30,31.20
2009,11,01,09,31,30.00
2009,11,01,09,32,34.50
2009,11,01,09,33,34.50
2009,11,01,09,34,31.80
2009,11,01,09,35,28.90
2009,11,01,09,36,26.70
2009,11,01,09,37,27.60
2009,11,01,09,38,45.50
2009,11,01,09,39,55.80
2009,11,01,09,40,49.00
2009,11,01,09,41,60.80
2009,11,01,09,42,72.20
2009,11,01,09,43,63.30
2009,11,01,09,44,60.70
2009,11,01,09,45,46.00
2009,11,01,09,46,37.00
2009,11,01,09,47,31.00
2009,11,01,09,48,25.30
2009,11,01,09,49,25.00
2009,11,01,09,50,26.20
2009,11,01,09,51,27.40
2009,11,01,09,52,26.00
2009,11,01,09,53,25.50
2009,11,01,09,54,25.00
2009,11,01,09,55,25.00
2009,11,01,09,56,25.00
2009,11,01,09,57,25.00
2009,11,01,09,58,24.10
2009,11,01,09,59,21.80
2009,11,01,10,00,24.10
2009,11,01,10,01,25.00
2009,11,01,10,02,25.00
2009,11,01,10,03,25.00
2009,11,01,10,04,25.00
2009,11,01,10,05,25.60
2009,11,01,10,06,26.00
2009,11,01,10,07,26.00
2009,11,01,10,08,26.00
2009,11,01,10,09,26.00
2009,11,01,10,10,27.00
2009,11,01,10,11,30.70
2009,11,01,10,12,44.80
2009,11,01,10,13,62.80
2009,11,01,10,14,47.30
2009,11,01,10,15,26.00
2009,11,01,10,16,26.00
2009,11,01,10,17,26.00
2009,11,01,10,18,26.00
2009,11,01,10,19,28.30
2009,11,01,10,20,37.30
2009,11,01,10,21,82.00
2009,11,01,10,22,150.40
2009,11,01,10,23,153.20
2009,11,01,10,24,70.80
2009,11,01,10,25,28.00
2009,11,01,10,26,28.50
2009,11,01,10,27,29.30
2009,11,01,10,28,29.00
2009,11,01,10,29,30.00
2009,11,01,10,30,30.00
2009,11,01,10,31,36.80
2009,11,01,10,32,35.60
2009,11,01,10,33,41.20
2009,11,01,10,34,47.00
2009,11,01,10,35,41.10
2009,11,01,10,36,33.90
2009,11,01,10,37,39.80
2009,11,01,10,38,37.20
2009,11,01,10,39,33.00
2009,11,01,10,40,32.50
2009,11,01,10,41,34.20
2009,11,01,10,42,39.50
2009,11,01,10,43,39.20
2009,11,01,10,44,35.00
2009,11,01,10,45,33.70
2009,11,01,10,46,32.00
2009,11,01,10,47,32.00
2009,11,01,10,48,36.30
2009,11,01,10,49,68.30
2009,11,01,10,50,124.80
2009,11,01,10,51,207.00
2009,11,01,10,52,253.20
2009,11,01,10,53,255.80
2009,11,01,10,54,193.30
2009,11,01,10,55,132.50
2009,11,01,10,56,121.70
2009,11,01,10,57,98.50
2009,11,01,10,58,65.20
2009,11,01,10,59,41.50
2009,11,01,11,00,46.30
2009,11,01,11,01,84.20
2009,11,01,11,02,139.60
2009,11,01,11,03,131.50
2009,11,01,11,04,109.90
2009,11,01,11,05,99.00
2009,11,01,11,06,136.70
2009,11,01,11,07,166.50
2009,11,01,11,08,111.20
2009,11,01,11,09,67.60
2009,11,01,11,10,52.70
2009,11,01,11,11,79.20
2009,11,01,11,12,130.60
2009,11,01,11,13,125.00
2009,11,01,11,14,145.40
2009,11,01,11,15,164.40
2009,11,01,11,16,156.00
2009,11,01,11,17,156.00
2009,11,01,11,18,105.80
2009,11,01,11,19,57.00
2009,11,01,11,20,43.10
2009,11,01,11,21,42.00
2009,11,01,11,22,42.00
2009,11,01,11,23,42.10
2009,11,01,11,24,45.70
2009,11,01,11,25,58.50
2009,11,01,11,26,69.00
2009,11,01,11,27,72.00
2009,11,01,11,28,74.00
2009,11,01,11,29,86.60
2009,11,01,11,30,83.30
2009,11,01,11,31,60.90
2009,11,01,11,32,71.00
2009,11,01,11,33,84.70
2009,11,01,11,34,97.00
2009,11,01,11,35,83.00
2009,11,01,11,36,57.00
2009,11,01,11,37,54.00
2009,11,01,11,38,53.50
2009,11,01,11,39,53.00
2009,11,01,11,40,53.00
2009,11,01,11,41,54.00
2009,11,01,11,42,54.50
2009,11,01,11,43,57.60
2009,11,01,11,44,61.00
2009,11,01,11,45,62.70
2009,11,01,11,46,63.00
2009,11,01,11,47,63.00
2009,11,01,11,48,64.50
2009,11,01,11,49,74.20
2009,11,01,11,50,87.00
2009,11,01,11,51,102.20
2009,11,01,11,52,121.20
2009,11,01,11,53,113.90
2009,11,01,11,54,107.50
2009,11,01,11,55,101.50
2009,11,01,11,56,98.00
2009,11,01,11,57,98.00
2009,11,01,11,58,106.00
2009,11,01,11,59,110.80
2009,11,01,12,00,122.20
2009,11,01,12,01,131.70
2009,11,01,12,02,114.20
2009,11,01,12,03,131.60
2009,11,01,12,04,115.20
2009,11,01,12,05,120.40
2009,11,01,12,06,123.00
2009,11,01,12,07,123.00
2009,11,01,12,08,123.00
2009,11,01,12,09,150.80
2009,11,01,12,10,148.40
2009,11,01,12,11,176.00
2009,11,01,12,12,173.60
2009,11,01,12,13,179.50
2009,11,01,12,14,184.10
2009,11,01,12,15,165.20
2009,11,01,12,16,152.00
2009,11,01,12,17,150.20
2009,11,01,12,18,157.90
2009,11,01,12,19,164.10
2009,11,01,12,20,158.80
2009,11,01,12,21,159.30
2009,11,01,12,22,160.60
2009,11,01,12,23,171.00
2009,11,01,12,24,179.00
2009,11,01,12,25,191.10
2009,11,01,12,26,184.90
2009,11,01,12,27,175.40
2009,11,01,12,28,164.40
2009,11,01,12,29,153.20
2009,11,01,12,30,143.90
2009,11,01,12,31,136.00
2009,11,01,12,32,134.30
2009,11,01,12,33,132.30
2009,11,01,12,34,134.20
2009,11,01,12,35,138.00
2009,11,01,12,36,143.20
2009,11,01,12,37,148.80
2009,11,01,12,38,153.80
2009,11,01,12,39,157.60
2009,11,01,12,40,163.00
2009,11,01,12,41,168.40
2009,11,01,12,42,187.30
2009,11,01,12,43,195.00
2009,11,01,12,44,202.10
2009,11,01,12,45,191.40
2009,11,01,12,46,193.00
2009,11,01,12,47,193.00
2009,11,01,12,48,193.00
2009,11,01,12,49,194.30
2009,11,01,12,50,183.20
2009,11,01,12,51,166.90
2009,11,01,12,52,159.60
2009,11,01,12,53,157.30
2009,11,01,12,54,155.50
2009,11,01,12,55,155.00
2009,11,01,12,56,153.30
2009,11,01,12,57,154.90
2009,11,01,12,58,156.90
2009,11,01,12,59,161.10
2009,11,01,13,00,164.00
2009,11,01,13,01,168.90
2009,11,01,13,02,180.50
2009,11,01,13,03,222.60
2009,11,01,13,04,267.20
2009,11,01,13,05,420.40
2009,11,01,13,06,476.00
2009,11,01,13,07,476.00
2009,11,01,13,08,504.60
2009,11,01,13,09,506.70
2009,11,01,13,10,443.70
2009,11,01,13,11,496.80
2009,11,01,13,12,494.00
2009,11,01,13,13,494.00
2009,11,01,13,14,492.30
2009,11,01,13,15,492.20
2009,11,01,13,16,494.00
2009,11,01,13,17,397.10
2009,11,01,13,18,276.00
2009,11,01,13,19,276.00
2009,11,01,13,20,276.00
2009,11,01,13,21,276.00
2009,11,01,13,22,273.90
2009,11,01,13,23,269.00
2009,11,01,13,24,269.00
2009,11,01,13,25,269.00
2009,11,01,13,26,269.00
2009,11,01,13,27,436.30
2009,11,01,13,28,480.20
2009,11,01,13,29,478.90
2009,11,01,13,30,495.30
2009,11,01,13,31,491.20
2009,11,01,13,32,485.50
2009,11,01,13,33,409.60
2009,11,01,13,34,465.00
2009,11,01,13,35,473.00
2009,11,01,13,36,457.00
2009,11,01,13,37,267.80
2009,11,01,13,38,309.20
2009,11,01,13,39,318.00
2009,11,01,13,40,381.80
2009,11,01,13,41,482.00
2009,11,01,13,42,292.20
2009,11,01,13,43,137.50
2009,11,01,13,44,129.00
2009,11,01,13,45,166.00
2009,11,01,13,46,162.00
2009,11,01,13,47,162.00
2009,11,01,13,48,269.10
2009,11,01,13,49,315.00
2009,11,01,13,50,132.60
2009,11,01,13,51,123.00
2009,11,01,13,52,145.00
2009,11,01,13,53,128.50
2009,11,01,13,54,84.00
2009,11,01,13,55,83.10
2009,11,01,13,56,73.70
2009,11,01,13,57,72.00
2009,11,01,13,58,72.00
2009,11,01,13,59,68.90
2009,11,01,14,00,65.60
2009,11,01,14,01,63.30
2009,11,01,14,02,63.30
2009,11,01,14,03,66.20
2009,11,01,14,04,69.00
2009,11,01,14,05,70.90
2009,11,01,14,06,72.00
2009,11,01,14,07,71.90
2009,11,01,14,08,70.00
2009,11,01,14,09,70.70
2009,11,01,14,10,72.00
2009,11,01,14,11,74.40
2009,11,01,14,12,79.80
2009,11,01,14,13,87.80
2009,11,01,14,14,99.50
2009,11,01,14,15,110.20
2009,11,01,14,16,118.50
2009,11,01,14,17,125.60
2009,11,01,14,18,139.10
2009,11,01,14,19,153.60
2009,11,01,14,20,153.50
2009,11,01,14,21,155.00
2009,11,01,14,22,152.00
2009,11,01,14,23,148.40
2009,11,01,14,24,152.20
2009,11,01,14,25,170.70
2009,11,01,14,26,143.80
2009,11,01,14,27,135.00
2009,11,01,14,28,129.80
2009,11,01,14,29,125.80
2009,11,01,14,30,121.80
2009,11,01,14,31,111.80
2009,11,01,14,32,99.50
2009,11,01,14,33,91.00
2009,11,01,14,34,84.20
2009,11,01,14,35,77.50
2009,11,01,14,36,70.60
2009,11,01,14,37,66.70
2009,11,01,14,38,64.40
2009,11,01,14,39,62.50
2009,11,01,14,40,62.60
2009,11,01,14,41,64.60
2009,11,01,14,42,65.00
2009,11,01,14,43,65.00
2009,11,01,14,44,64.50
2009,11,01,14,45,62.50
2009,11,01,14,46,62.00
2009,11,01,14,47,62.00
2009,11,01,14,48,62.00
2009,11,01,14,49,65.60
2009,11,01,14,50,70.10
2009,11,01,14,51,72.00
2009,11,01,14,52,74.50
2009,11,01,14,53,76.00
2009,11,01,14,54,75.90
2009,11,01,14,55,73.20
2009,11,01,14,56,68.90
2009,11,01,14,57,65.00
2009,11,01,14,58,61.00
2009,11,01,14,59,58.40
2009,11,01,15,00,54.00
2009,11,01,15,01,54.50
2009,11,01,15,02,56.70
2009,11,01,15,03,59.00
2009,11,01,15,04,61.30
2009,11,01,15,05,62.00
2009,11,01,15,06,62.10
2009,11,01,15,07,63.00
2009,11,01,15,08,88.30
2009,11,01,15,09,121.90
2009,11,01,15,10,129.40
2009,11,01,15,11,134.80
2009,11,01,15,12,94.80
2009,11,01,15,13,78.80
2009,11,01,15,14,81.20
2009,11,01,15,15,78.50
2009,11,01,15,16,73.80
2009,11,01,15,17,81.90
2009,11,01,15,18,70.70
2009,11,01,15,19,81.00
2009,11,01,15,20,76.90
2009,11,01,15,21,79.50
2009,11,01,15,22,71.40
2009,11,01,15,23,71.60
2009,11,01,15,24,77.00
2009,11,01,15,25,76.70
2009,11,01,15,26,76.40
2009,11,01,15,27,78.10
2009,11,01,15,28,80.40
2009,11,01,15,29,76.30
2009,11,01,15,30,79.30
2009,11,01,15,31,82.50
2009,11,01,15,32,86.00
2009,11,01,15,33,84.70
2009,11,01,15,34,78.50
2009,11,01,15,35,76.80
2009,11,01,15,36,75.40
2009,11,01,15,37,81.00
2009,11,01,15,38,85.50
2009,11,01,15,39,79.90
2009,11,01,15,40,67.20
2009,11,01,15,41,62.30
2009,11,01,15,42,61.60
2009,11,01,15,43,56.80
2009,11,01,15,44,44.00
2009,11,01,15,45,33.80
2009,11,01,15,46,24.40
2009,11,01,15,47,19.10
2009,11,01,15,48,17.50
2009,11,01,15,49,16.00
2009,11,01,15,50,16.00
2009,11,01,15,51,16.00
2009,11,01,15,52,14.20
2009,11,01,15,53,14.20
2009,11,01,15,54,16.00
2009,11,01,15,55,16.00
2009,11,01,15,56,16.00
2009,11,01,15,57,16.00
2009,11,01,15,58,16.00
2009,11,01,15,59,16.30
2009,11,01,16,00,18.00
2009,11,01,16,01,18.40
2009,11,01,16,02,20.10
2009,11,01,16,03,23.80
2009,11,01,16,04,25.00
2009,11,01,16,05,26.00
2009,11,01,16,06,26.00
2009,11,01,16,07,25.60
2009,11,01,16,08,25.00
2009,11,01,16,09,25.00
2009,11,01,16,10,24.90
2009,11,01,16,11,23.00
2009,11,01,16,12,23.00
2009,11,01,16,13,22.10
2009,11,01,16,14,21.00
2009,11,01,16,15,21.00
2009,11,01,16,16,21.00
2009,11,01,16,17,21.00
2009,11,01,16,18,21.00
2009,11,01,16,19,21.00
2009,11,01,16,20,21.00
2009,11,01,16,21,21.00
2009,11,01,16,22,21.00
2009,11,01,16,23,21.00
2009,11,01,16,24,20.30
2009,11,01,16,25,18.50
2009,11,01,16,26,16.70
2009,11,01,16,27,16.00
2009,11,01,16,28,16.00
2009,11,01,16,29,15.60
2009,11,01,16,30,14.00
2009,11,01,16,31,13.00
2009,11,01,16,32,12.00
2009,11,01,16,33,12.00
2009,11,01,16,34,11.10
2009,11,01,16,35,11.00
2009,11,01,16,36,10.20
2009,11,01,16,37,9.00
2009,11,01,16,38,9.00
2009,11,01,16,39,7.20
2009,11,01,16,40,7.00
2009,11,01,16,41,7.00
2009,11,01,16,42,6.20
2009,11,01,16,43,5.00
2009,11,01,16,44,5.00
2009,11,01,16,45,5.00
2009,11,01,16,46,0.00
2009,11,01,16,47,0.00
2009,11,01,16,48,0.00
2009,11,01,16,49,0.00
2009,11,01,16,50,0.00
2009,11,01,16,51,0.00
2009,11,01,16,52,0.00
2009,11,01,16,53,0.00
2009,11,01,16,54,0.00
2009,11,01,16,55,0.00
2009,11,01,16,56,0.00
2009,11,01,16,57,0.00
2009,11,01,16,58,0.00
2009,11,01,16,59,0.00
2009,11,01,17,00,0.00
2009,11,01,17,01,0.00
2009,11,01,17,02,0.00
2009,11,01,17,03,0.00
2009,11,01,17,04,0.00
2009,11,01,17,05,0.00
2009,11,01,17,06,0.00
2009,11,01,17,07,0.00
2009,11,01,17,08,0.00
2009,11,01,17,09,0.00
2009,11,01,17,10,0.00
2009,11,01,17,11,0.00
2009,11,01,17,12,0.00
2009,11,01,17,13,0.00
2009,11,01,17,14,0.00
2009,11,01,17,15,0.00
2009,11,01,17,16,0.00
2009,11,01,17,17,0.00
2009,11,01,17,18,0.00
2009,11,01,17,19,0.00
2009,11,01,17,20,0.00
2009,11,01,17,21,0.00
2009,11,01,17,22,0.00
2009,11,01,17,23,0.00
2009,11,01,17,24,0.00
2009,11,01,17,25,0.00
2009,11,01,17,26,0.00
2009,11,01,17,27,0.00
2009,11,01,17,28,0.00
2009,11,01,17,29,0.00
2009,11,01,17,30,0.00
2009,11,01,17,31,0.00
2009,11,01,17,32,0.00
2009,11,01,17,33,0.00
2009,11,01,17,34,0.00
2009,11,01,17,35,0.00
2009,11,01,17,36,0.00
2009,11,01,17,37,0.00
2009,11,01,17,38,0.00
2009,11,01,17,39,0.00
2009,11,01,17,40,0.00
2009,11,01,17,41,0.00